| time (UTC) | temp F | wind direction | speed knots | gust knots | rain 1hr in | rain 24hr in | rain mn in | humidity % | barometer mb |
| 20260506195029 | 58 | 89 | 4.3 | 4.3 | 0.00 | 0.89 | 0.89 | 77 | 1015.6 |
| 20260506194111 | 58 | 89 | 4.3 | 4.3 | 0.00 | 0.89 | 0.89 | 76 | 1015.0 |
| 20260506193056 | 58 | 89 | 4.3 | 4.3 | 0.00 | 0.89 | 0.89 | 76 | 1014.6 |
| 20260506192035 | 58 | 89 | 4.3 | 4.3 | 0.00 | 0.89 | 0.89 | 76 | 1014.6 |
| 20260506191021 | 58 | 89 | 4.3 | 4.3 | 0.00 | 0.89 | 0.89 | 76 | 1015.1 |
| 20260506190104 | 59 | 89 | 4.3 | 4.3 | 0.00 | 0.89 | 0.89 | 76 | 1015.6 |
| 20260506185046 | 59 | 89 | 4.3 | 4.3 | 0.00 | 0.89 | 0.89 | 77 | 1015.6 |
| 20260506184032 | 59 | 89 | 4.3 | 4.3 | 0.00 | 0.89 | 0.89 | 77 | 1015.3 |
| 20260506183115 | 60 | 89 | 4.3 | 4.3 | 0.00 | 0.89 | 0.89 | 76 | 1014.8 |
| 20260506182059 | 60 | 89 | 4.3 | 4.3 | 0.00 | 0.89 | 0.89 | 75 | 1015.6 |
| 20260506181034 | 60 | 89 | 4.3 | 4.3 | 0.00 | 0.89 | 0.89 | 75 | 1015.6 |
| 20260506180120 | 61 | 89 | 4.3 | 4.3 | 0.00 | 0.89 | 0.89 | 74 | 1014.6 |
| 20260506175059 | 61 | 89 | 4.3 | 4.3 | 0.00 | 0.89 | 0.89 | 75 | 1014.6 |
| 20260506174044 | 61 | 89 | 4.3 | 4.3 | 0.00 | 0.89 | 0.89 | 74 | 1015.6 |
| 20260506173026 | 61 | 89 | 4.3 | 4.3 | 0.00 | 0.89 | 0.89 | 72 | 1014.6 |
| 20260506172131 | 61 | 89 | 4.3 | 4.3 | 0.00 | 0.89 | 0.89 | 72 | 1014.6 |
| 20260506171115 | 62 | 89 | 4.3 | 4.3 | 0.00 | 0.89 | 0.89 | 73 | 1014.6 |
| 20260506170115 | 62 | 89 | 4.3 | 4.3 | 0.00 | 0.89 | 0.89 | 74 | 1014.6 |
| 20260506165020 | 62 | 89 | 4.3 | 4.3 | 0.00 | 0.89 | 0.89 | 74 | 1014.6 |
| 20260506164104 | 63 | 89 | 4.3 | 4.3 | 0.00 | 0.89 | 0.89 | 74 | 1014.6 |
| 20260506163046 | 63 | 89 | 4.3 | 4.3 | 0.00 | 0.89 | 0.89 | 74 | 1013.6 |
| 20260506162031 | 63 | 89 | 4.3 | 4.3 | 0.00 | 0.90 | 0.89 | 74 | 1013.6 |
| 20260506161108 | 62 | 89 | 4.3 | 4.3 | 0.00 | 0.92 | 0.89 | 74 | 1014.6 |
| 20260506160044 | 62 | 89 | 4.3 | 4.3 | 0.00 | 0.92 | 0.89 | 75 | 1014.6 |
| 20260506155020 | 62 | 89 | 4.3 | 4.3 | 0.00 | 0.92 | 0.89 | 75 | 1014.6 |
| 20260506154104 | 62 | 49 | 4.3 | 4.3 | 0.00 | 0.92 | 0.89 | 78 | 1014.6 |
| 20260506153107 | 62 | 56 | 3.5 | 3.5 | 0.00 | 0.92 | 0.89 | 77 | 1013.6 |
| 20260506152032 | 62 | 49 | 4.3 | 4.3 | 0.00 | 0.92 | 0.89 | 80 | 1013.6 |
| 20260506151110 | 61 | 56 | 3.5 | 3.5 | 0.00 | 0.92 | 0.89 | 79 | 1014.6 |
| 20260506150051 | 62 | 49 | 4.3 | 4.3 | 0.00 | 0.92 | 0.89 | 79 | 1014.6 |
| 20260506145034 | 61 | 56 | 3.5 | 4.3 | 0.00 | 0.92 | 0.89 | 79 | 1014.6 |
| 20260506144120 | 60 | 48 | 4.3 | 4.3 | 0.00 | 0.92 | 0.89 | 79 | 1015.4 |
| 20260506143100 | 59 | 46 | 4.3 | 4.3 | 0.00 | 0.92 | 0.89 | 80 | 1015.6 |
| 20260506142044 | 59 | 46 | 4.3 | 4.3 | 0.00 | 0.94 | 0.89 | 79 | 1015.6 |
| 20260506141027 | 59 | 65 | 3.5 | 4.3 | 0.00 | 0.96 | 0.89 | 77 | 1014.9 |
| 20260506140130 | 60 | 76 | 3.5 | 3.5 | 0.01 | 0.98 | 0.89 | 77 | 1014.6 |
| 20260506135056 | 60 | 76 | 3.5 | 3.5 | 0.02 | 0.98 | 0.89 | 78 | 1014.6 |
| 20260506134055 | 60 | 76 | 3.5 | 3.5 | 0.02 | 0.99 | 0.89 | 79 | 1015.6 |
| 20260506133040 | 59 | 76 | 3.5 | 3.5 | 0.04 | 0.99 | 0.89 | 79 | 1016.6 |
| 20260506132104 | 59 | 76 | 3.5 | 3.5 | 0.05 | 1.00 | 0.89 | 79 | 1016.2 |
| 20260506131046 | 59 | 76 | 3.5 | 5.2 | 0.08 | 1.00 | 0.89 | 80 | 1015.6 |
| 20260506130031 | 59 | 76 | 3.5 | 3.5 | 0.17 | 0.99 | 0.87 | 82 | 1015.6 |
| 20260506125115 | 58 | 76 | 3.5 | 3.5 | 0.21 | 0.98 | 0.86 | 84 | 1015.6 |
| 20260506124057 | 59 | 76 | 3.5 | 3.5 | 0.22 | 0.98 | 0.86 | 79 | 1015.6 |
| 20260506123039 | 59 | 76 | 3.5 | 3.5 | 0.22 | 0.97 | 0.85 | 79 | 1015.6 |
| 20260506122022 | 59 | 76 | 3.5 | 3.5 | 0.21 | 0.96 | 0.84 | 79 | 1014.6 |
| 20260506121109 | 58 | 76 | 3.5 | 3.5 | 0.18 | 0.92 | 0.80 | 81 | 1014.6 |
| 20260506120047 | 58 | 76 | 3.5 | 3.5 | 0.08 | 0.83 | 0.71 | 87 | 1016.6 |
| 20260506115026 | 59 | 76 | 3.5 | 3.5 | 0.02 | 0.77 | 0.65 | 87 | 1015.6 |
| 20260506114110 | 59 | 76 | 3.5 | 3.5 | 0.02 | 0.76 | 0.64 | 86 | 1015.6 |
| 20260506113055 | 59 | 76 | 3.5 | 3.5 | 0.01 | 0.74 | 0.63 | 83 | 1016.6 |
| 20260506112034 | 59 | 76 | 3.5 | 3.5 | 0.01 | 0.74 | 0.63 | 77 | 1016.6 |
| 20260506111020 | 58 | 76 | 3.5 | 3.5 | 0.01 | 0.74 | 0.63 | 77 | 1015.6 |
| 20260506110103 | 58 | 56 | 2.6 | 2.6 | 0.01 | 0.74 | 0.63 | 77 | 1015.6 |
| 20260506105046 | 58 | 56 | 2.6 | 2.6 | 0.01 | 0.74 | 0.63 | 77 | 1015.6 |
| 20260506104031 | 59 | 56 | 2.6 | 2.6 | 0.00 | 0.73 | 0.61 | 76 | 1016.6 |
| 20260506103114 | 59 | 56 | 2.6 | 2.6 | 0.00 | 0.74 | 0.61 | 75 | 1017.6 |
| 20260506102057 | 59 | 56 | 2.6 | 2.6 | 0.00 | 0.76 | 0.61 | 77 | 1017.6 |
| 20260506101059 | 59 | 56 | 2.6 | 2.6 | 0.00 | 0.77 | 0.61 | 83 | 1016.6 |
| 20260506100120 | 59 | 56 | 2.6 | 2.6 | 0.00 | 0.78 | 0.61 | 83 | 1016.6 |
| 20260506095119 | 59 | 56 | 2.6 | 2.6 | 0.00 | 0.80 | 0.61 | 77 | 1016.6 |
| 20260506094045 | 59 | 56 | 2.6 | 2.6 | 0.00 | 0.81 | 0.61 | 77 | 1016.6 |
| 20260506093027 | 59 | 56 | 2.6 | 2.6 | 0.00 | 0.84 | 0.61 | 78 | 1016.6 |
| 20260506092108 | 58 | 56 | 2.6 | 2.6 | 0.00 | 0.84 | 0.61 | 78 | 1017.5 |
| 20260506091047 | 59 | 56 | 2.6 | 2.6 | 0.00 | 0.85 | 0.61 | 80 | 1016.8 |
| 20260506090031 | 58 | 56 | 2.6 | 2.6 | 0.00 | 0.86 | 0.61 | 79 | 1016.6 |
| 20260506085135 | 59 | 56 | 2.6 | 2.6 | 0.00 | 0.86 | 0.61 | 85 | 1016.6 |
| 20260506084138 | 58 | 31 | 1.7 | 2.6 | 0.00 | 0.86 | 0.61 | 82 | 1016.6 |
| 20260506083119 | 58 | 12 | 1.7 | 1.7 | 0.00 | 0.86 | 0.61 | 80 | 1016.6 |
| 20260506082022 | 58 | 12 | 1.7 | 1.7 | 0.00 | 0.86 | 0.61 | 81 | 1016.6 |
| 20260506081109 | 57 | 12 | 1.7 | 1.7 | 0.00 | 0.86 | 0.61 | 82 | 1016.6 |
| 20260506073120 | 56 | 12 | 1.7 | 1.7 | 0.02 | 0.86 | 0.61 | 82 | 1016.6 |
| 20260506071619 | 56 | 12 | 1.7 | 1.7 | 0.06 | 0.86 | 0.61 | 82 | 1015.6 |
| 20260506070545 | 55 | 12 | 1.7 | 1.7 | 0.11 | 0.86 | 0.61 | 83 | 1017.6 |
| 20260506061538 | 55 | 12 | 1.7 | 1.7 | 0.44 | 0.80 | 0.56 | 90 | 1017.6 |
| 20260506060544 | 55 | 12 | 1.7 | 1.7 | 0.41 | 0.76 | 0.51 | 88 | 1016.6 |
| 20260506050603 | 54 | 12 | 1.7 | 1.7 | 0.08 | 0.34 | 0.09 | 80 | 1017.6 |
| 20260506044536 | 54 | 12 | 1.7 | 1.7 | 0.06 | 0.31 | 0.06 | 81 | 1016.6 |
| 20260506043522 | 54 | 12 | 1.7 | 1.7 | 0.04 | 0.28 | 0.04 | 80 | 1016.6 |
| 20260506042630 | 53 | 12 | 1.7 | 1.7 | 0.02 | 0.27 | 0.02 | 80 | 1016.6 |
| 20260506041556 | 53 | 12 | 1.7 | 1.7 | 0.01 | 0.26 | 0.01 | 80 | 1016.6 |
| 20260506040603 | 53 | 12 | 1.7 | 1.7 | 0.01 | 0.26 | 0.01 | 80 | 1016.6 |
| 20260506035528 | 53 | 12 | 1.7 | 1.7 | 0.00 | 0.25 | 0.00 | 80 | 1016.6 |
| 20260506034615 | 53 | 12 | 1.7 | 1.7 | 0.00 | 0.25 | 0.00 | 80 | 1016.6 |
| 20260506033558 | 53 | 12 | 1.7 | 1.7 | 0.00 | 0.25 | 0.00 | 80 | 1016.6 |
| 20260506032545 | 53 | 12 | 1.7 | 1.7 | 0.00 | 0.25 | 0.00 | 79 | 1015.8 |
| 20260506031551 | 52 | 12 | 1.7 | 1.7 | 0.00 | 0.25 | 0.00 | 79 | 1015.6 |
| 20260506030518 | 52 | 12 | 1.7 | 1.7 | 0.00 | 0.25 | 0.00 | 77 | 1017.3 |
| 20260506025625 | 52 | 12 | 1.7 | 1.7 | 0.00 | 0.25 | 0.00 | 77 | 1017.6 |
| 20260506024551 | 53 | 12 | 1.7 | 1.7 | 0.00 | 0.25 | 0.00 | 80 | 1017.6 |
| 20260506023537 | 52 | 12 | 1.7 | 1.7 | 0.00 | 0.25 | 0.00 | 81 | 1017.0 |
| 20260506022524 | 52 | 12 | 1.7 | 1.7 | 0.00 | 0.25 | 0.00 | 81 | 1016.6 |
| 20260506021611 | 52 | 12 | 1.7 | 1.7 | 0.00 | 0.25 | 0.00 | 81 | 1017.2 |
| 20260506020556 | 52 | 12 | 1.7 | 1.7 | 0.00 | 0.25 | 0.00 | 81 | 1017.6 |
| 20260506015542 | 52 | 12 | 1.7 | 1.7 | 0.00 | 0.25 | 0.00 | 81 | 1017.1 |
| 20260506014529 | 52 | 12 | 1.7 | 1.7 | 0.00 | 0.25 | 0.00 | 81 | 1016.6 |
| 20260506013616 | 52 | 5 | 2.6 | 2.6 | 0.00 | 0.25 | 0.00 | 81 | 1017.1 |
| 20260506012603 | 52 | 2 | 2.6 | 2.6 | 0.00 | 0.25 | 0.00 | 81 | 1017.6 |
| 20260506011549 | 52 | 2 | 2.6 | 2.6 | 0.00 | 0.25 | 0.00 | 80 | 1017.6 |
| 20260506010535 | 52 | 2 | 2.6 | 2.6 | 0.00 | 0.25 | 0.00 | 80 | 1017.6 |
| 20260506005522 | 52 | 4 | 2.6 | 2.6 | 0.00 | 0.25 | 0.00 | 80 | 1017.6 |
| 20260506004609 | 52 | 23 | 1.7 | 1.7 | 0.00 | 0.25 | 0.00 | 80 | 1017.6 |
| 20260506003556 | 52 | 11 | 0.9 | 0.9 | 0.00 | 0.25 | 0.00 | 79 | 1016.6 |
| 20260506002543 | 53 | 11 | 0.9 | 0.9 | 0.00 | 0.25 | 0.00 | 79 | 1018.6 |
| 20260506001609 | 53 | 11 | 0.9 | 0.9 | 0.00 | 0.25 | 0.00 | 79 | 1018.6 |
| 20260506000616 | 54 | 11 | 0.9 | 0.9 | 0.00 | 0.25 | 0.00 | 79 | 1017.6 |
| 20260505235603 | 54 | 11 | 0.9 | 0.9 | 0.00 | 0.25 | 0.00 | 79 | 1017.6 |
| 20260505234549 | 54 | 11 | 0.9 | 0.9 | 0.00 | 0.25 | 0.00 | 78 | 1017.6 |
| 20260505233616 | 54 | 11 | 0.9 | 0.9 | 0.00 | 0.25 | 0.00 | 74 | 1018.6 |
| 20260505232522 | 54 | 11 | 0.9 | 0.9 | 0.00 | 0.25 | 0.00 | 73 | 1018.6 |
| 20260505231611 | 54 | 11 | 0.9 | 0.9 | 0.00 | 0.25 | 0.00 | 76 | 1017.6 |
| 20260505230556 | 54 | 11 | 0.9 | 0.9 | 0.00 | 0.25 | 0.00 | 80 | 1018.6 |
| 20260505225543 | 54 | 63 | 5.2 | 5.2 | 0.00 | 0.25 | 0.00 | 80 | 1018.6 |
| 20260505224529 | 55 | 63 | 5.2 | 5.2 | 0.00 | 0.25 | 0.00 | 79 | 1017.6 |
| 20260505223617 | 55 | 63 | 5.2 | 5.2 | 0.00 | 0.25 | 0.00 | 79 | 1017.6 |
| 20260505222604 | 55 | 63 | 5.2 | 5.2 | 0.00 | 0.25 | 0.00 | 79 | 1019.6 |
| 20260505221629 | 55 | 63 | 5.2 | 5.2 | 0.00 | 0.25 | 0.00 | 79 | 1019.6 |
| 20260505220537 | 55 | 63 | 5.2 | 5.2 | 0.00 | 0.25 | 0.00 | 80 | 1018.6 |
| 20260505215522 | 56 | 63 | 5.2 | 5.2 | 0.00 | 0.25 | 0.25 | 80 | 1018.6 |
| 20260505214630 | 56 | 63 | 5.2 | 5.2 | 0.00 | 0.25 | 0.25 | 80 | 1018.6 |
| 20260505213555 | 56 | 63 | 5.2 | 5.2 | 0.00 | 0.25 | 0.25 | 80 | 1017.6 |
| 20260505212542 | 56 | 63 | 5.2 | 5.2 | 0.00 | 0.25 | 0.25 | 80 | 1019.6 |
| 20260505211528 | 56 | 63 | 5.2 | 5.2 | 0.00 | 0.25 | 0.25 | 80 | 1019.6 |
| 20260505210615 | 56 | 63 | 5.2 | 5.2 | 0.00 | 0.25 | 0.25 | 79 | 1019.6 |
| 20260505205559 | 56 | 63 | 5.2 | 5.2 | 0.00 | 0.25 | 0.25 | 80 | 1018.6 |
| 20260505204545 | 56 | 63 | 5.2 | 5.2 | 0.00 | 0.25 | 0.25 | 79 | 1018.6 |
| 20260505203531 | 56 | 63 | 5.2 | 5.2 | 0.00 | 0.25 | 0.25 | 80 | 1017.6 |
| 20260505202617 | 56 | 63 | 5.2 | 5.2 | 0.00 | 0.25 | 0.25 | 79 | 1019.6 |
| 20260505201602 | 56 | 63 | 5.2 | 5.2 | 0.00 | 0.25 | 0.25 | 79 | 1019.6 |
| 20260505200548 | 56 | 63 | 5.2 | 5.2 | 0.00 | 0.25 | 0.25 | 76 | 1019.6 |